ATLAS 5 CENTAUR DEB, 43991

Orbit data source: Space-Track

ATLAS 5 CENTAUR DEB, 43991 is space debris in HEO originally from a launch on Wed, 17 Sep 2014 UTC launched from the Air Force Eastern Test Range (AFETR). Debris objects in space refer to the collection of defunct objects orbiting the Earth. Examples of debris include non-operational satellites, rocket bodies, and fragments generated from explosions, collisions, or faulty payload assembly.

Loading next visibility...
Identifier
43991, 2014-055AW
Orbit
HEO
Country
Flag of USUS
Related business
Flag of USUnited Launch Alliance/Lockheed Martin (US)
Manufacturer
Unknown
Mission
Spacecraft
Bus & Motor
Unknown
Mass
Unknown
Launch date (UTC)
2014-09-17 (11 years ago)
Launch vehicle
Unknown
Launch site
Air Force Eastern Test Range (AFETR)
Object type
Payload
Rocket body
Debris
Shape & HBR
Unknown shape, 1.1 m
Radar Cross Section
Small (<0.1 m²)

Expand to show TLE details & history
Last TLE update: 5 days ago

TLE from 5 days ago
0 ATLAS 5 CENTAUR DEB
1 43991U 14055AW  26068.59275663 -.00000032  00000-0  00000+0 0  9991
2 43991  19.4956 182.2600 4655805 100.7380 313.1346  1.82442146 49504
Epoch: 2026-03-09T14:13Z
TLE epoch observation values (Epoch: 2026-03-09T14:13:34.172Z)
Latitude
-0°
Longitude
161.5368°
Altitude
17,915.047 km
Speed
4.327 km/s
True Right ascension
12h 08m 51s
True Declination
0° 00' 00"
Sunlit
Object was in full shadow at epoch
Visualization orbit readout
Latitude
Unknown
Longitude
Unknown
Altitude
Unknown
Speed
Unknown
Apparent Right ascension
Unknown
Apparent Declination
Unknown
Sunlit
N/A
Visualization observer readout
Local Sidereal Time
13:34:46
Azimuth
Unknown
Elevation
Unknown
Doppler factor
Unknown
Orbital elements
Apogee altitude
35,087.695 km
Perigee altitude
8,742.253 km
Semi-major axis
28,293.111 km
Eccentricity
0.46558
Inclination
19.4956°
RAAN
182.26°
Arg. of periapsis
100.738°
True anomaly
259.17903°
Mean anomaly
313.1346°
Eccentric anomaly
287.72516°
Mean motion
0.45606 °/min
Orbital period
789.37 mins
BSTAR
0
Loading maneuver chart data...
Computing Atmospheric mass density...

Documentation

Showing up to 5 results
|